Location: Westminster College Observatory
(41.1194°N, 80.3291°W)
Time: 11:04:39
(UTC-05:00)

Tiangong 2 - Visible Passes

Search period start: 23 January 2018 00:00
Search period end: 02 February 2018 00:00
Orbit: 384 x 390 km, 42.8° (Epoch: 23 January)

Date Brightness Start Highest point End Pass type
(mag) Time Alt. Az. Time Alt. Az. Time Alt. Az.
23 Jan 4.1 05:09:36 16° ENE 05:09:36 16° ENE 05:10:22 10° ENE visible
23 Jan 1.2 06:41:52 18° WNW 06:44:05 62° N 06:47:15 10° E visible
24 Jan 1.8 05:45:53 49° NE 05:45:53 49° NE 05:48:27 10° E visible
25 Jan 1.1 06:22:07 32° WNW 06:23:25 70° N 06:26:37 10° E visible
26 Jan 3.1 05:26:04 28° ENE 05:26:04 28° ENE 05:27:48 10° E visible
26 Jan 1.3 06:58:20 10° W 07:01:28 62° SSW 07:04:37 10° ESE visible
27 Jan 0.9 06:02:18 65° WNW 06:02:43 89° WSW 06:05:54 10° ESE visible
28 Jan 4.1 05:06:17 17° E 05:06:17 17° E 05:07:06 10° E visible
28 Jan 2.0 06:38:33 17° W 06:40:38 38° SSW 06:43:37 10° SE visible
29 Jan 1.9 05:42:34 46° SSE 05:42:34 46° SSE 05:45:04 10° ESE visible
30 Jan 2.7 06:18:55 20° SW 06:19:42 22° SSW 06:22:15 10° SSE visible
31 Jan 3.6 05:23:02 17° SE 05:23:02 17° SE 05:23:59 10° SE visible
01 Feb 3.6 05:59:31 12° SSW 05:59:31 12° SSW 06:00:10 10° S visible
